Tracking 25195 objects as of 20-Jan-2022
HD Live streaming from Space Station
objects crossing your sky now

DIRECTV 6 (TEMPO 2)

Track DIRECTV 6 (TEMPO 2) now!
DIRECTV 6 (TEMPO 2) is classified as:


NORAD ID: 24748
Int'l Code: 1997-011A
Perigee: 36,027.0 km
Apogee: 36,264.8 km
Inclination: 11.1 °
Period: 1,454.1 minutes
Semi major axis: 42516 km
RCS: 12.5892 m2 (large)
Launch date: March 8, 1997
Source: United States (US)
Launch site: AIR FORCE EASTERN TEST RANGE (AFETR)

Direct-to-home TV; 32 Ku-band transponders
aabbcc
Your satellite tracking list
Your tracking list is empty




NASA's NSSDC Master Catalog

Two Line Element Set (TLE):
1 24748U 97011A   22019.53313426 -.00000055  00000-0  00000-0 0  9995
2 24748  11.1312  33.3728 0027956 284.3217 267.8817  0.99028609 90548
Source of the keplerian elements: AFSPC